[[{"header":{"parameterUnit":"m.s-1","parameterCategory":1,"la1":30.2992,"la2":30.254,"lo1":-89.0895,"lo2":-89.0443,"dy":0.0025,"dx":0.0025,"nx":19,"ny":19,"refTime":"2026-04-24T21:00:00:Z","depth":0,"parameterNumber":2,"parameterNumberName":"U-component_of_WINDS"},"data":[0,0,0,-0.1097,-0.1095,-0.0984,-0.0984,-0.0838,-0.0837,0,0,0,0,0,0,0,0,0,0,0,-0.1129,-0.1129,-0.1097,-0.1095,-0.0984,-0.0984,-0.0838,-0.0837,0,0,0,0,0,0,0,0,0,0,0,-0.113,-0.1129,-0.1128,-0.1094,-0.0984,-0.0984,-0.0839,-0.0923,0,0,0,0,0,0,0,0,0,0,-0.1031,-0.1061,-0.1129,-0.1128,-0.1094,-0.0984,-0.0983,-0.0927,-0.0918,-0.0887,0,-0.0862,0,-0.0847,-0.0827,-0.0827,0,0,0,-0.1094,-0.1069,-0.104,-0.1127,-0.1093,-0.0984,-0.1034,-0.0922,-0.0911,-0.0875,-0.086,-0.0854,-0.0845,-0.0826,-0.0825,-0.0655,-0.0655,0,0,-0.11,-0.1109,-0.1047,-0.1033,-0.1052,-0.1037,-0.103,-0.0916,-0.0899,-0.0859,-0.0851,-0.0842,-0.0825,-0.0824,-0.0656,-0.0655,0,0,0,-0.1118,-0.1113,-0.1087,-0.1039,-0.1019,-0.1034,-0.1026,-0.0904,-0.0895,-0.0849,-0.0841,-0.0824,-0.0823,-0.0657,-0.0656,-0.0627,0,0,0,-0.1122,-0.1123,-0.1089,-0.1093,-0.1021,-0.0961,-0.1017,-0.0903,-0.089,-0.0841,-0.0824,-0.0821,-0.0658,-0.0656,-0.063,-0.0612,0,0,0,-0.1137,-0.1125,-0.1109,-0.1094,-0.1047,-0.0962,-0.0946,-0.09,-0.0884,-0.0827,-0.0821,-0.0658,-0.0657,-0.0632,-0.0615,-0.057,0,0,0,-0.1155,-0.1084,-0.1109,-0.1026,-0.1048,-0.0946,-0.0947,-0.087,-0.0817,-0.0824,-0.0658,-0.0656,-0.0633,-0.0618,-0.0573,-0.0534,-0.0519,0,0,-0.107,-0.1074,-0.1024,-0.1044,-0.0939,-0.0962,-0.0852,-0.0795,-0.078,-0.0697,-0.0693,-0.0629,-0.0616,-0.0571,-0.0429,-0.0417,0,0,0,-0.1,-0.0965,-0.0935,-0.0886,-0.0842,-0.0802,-0.0761,-0.0739,-0.0669,-0.074,-0.0599,-0.0591,-0.0565,-0.0546,-0.0536,-0.0512,-0.0647,-0.0648,-0.0648,-0.0892,-0.0879,-0.0796,-0.077,-0.0722,-0.0681,-0.0641,-0.0605,-0.0604,-0.0571,-0.0547,-0.0462,-0.0441,-0.0433,-0.0409,-0.0525,-0.0524,-0.0524,-0.0524,-0.0766,-0.0715,-0.0717,-0.0638,-0.0624,-0.0557,-0.0514,-0.0516,-0.045,-0.048,-0.0455,-0.0489,-0.042,-0.0399,-0.0522,-0.0522,-0.0523,-0.0523,-0.0523,-0.0695,-0.0668,-0.0644,-0.0573,-0.0519,-0.0494,-0.0432,-0.042,-0.0409,-0.0385,-0.0359,-0.0359,-0.0359,-0.0373,-0.0373,-0.0373,-0.0372,-0.0372,-0.0372,-0.063,-0.0605,-0.0555,-0.0502,-0.047,-0.0425,-0.0383,-0.035,-0.031,-0.0307,-0.0307,-0.031,-0.0416,-0.0444,-0.0367,-0.0368,-0.0369,-0.0369,-0.0369,-0.051,-0.0535,-0.0458,-0.0426,-0.0363,-0.0311,-0.0297,-0.0231,-0.0202,-0.0172,-0.0179,-0.026,-0.0263,-0.0271,-0.0293,-0.0183,-0.0183,-0.0183,-0.0182,-0.045,-0.0451,-0.037,-0.0319,-0.0267,-0.0248,-0.016,-0.0126,-0.0094,-0.0075,-0.0089,-0.0118,-0.0127,-0.0124,-0.0135,-0.0157,-0.0013,-0.0013,-0.0013,-0.0375,-0.0371,-0.0299,-0.0271,-0.0221,-0.0178,-0.0095,-0.0035,-0.0004,-0.0006,-0.006,-0.0067,-0.0114,-0.0129,-0.0133,-0.0151,-0.0189,0,0]},{"header":{"parameterUnit":"m.s-1","parameterCategory":1,"la1":30.2992,"la2":30.254,"lo1":-89.0895,"lo2":-89.0443,"dy":0.0025,"dx":0.0025,"nx":19,"ny":19,"refTime":"2026-04-24T21:00:00:Z","depth":0,"parameterNumber":3,"parameterNumberName":"V-component_of_WINDS"},"data":[0,0,0,0.3132,0.3132,0.3123,0.3123,0.3112,0.3112,0,0,0,0,0,0,0,0,0,0,0,0.3136,0.3135,0.3132,0.3132,0.3123,0.3123,0.3112,0.3112,0,0,0,0,0,0,0,0,0,0,0,0.3136,0.3135,0.3135,0.3132,0.3123,0.3123,0.3112,0.3118,0,0,0,0,0,0,0,0,0,0,0.3127,0.3131,0.3135,0.3135,0.3132,0.3123,0.3123,0.3119,0.3118,0.3116,0,0.3115,0,0.3113,0.3111,0.3111,0,0,0,0.3131,0.3132,0.3129,0.3135,0.3132,0.3123,0.3127,0.3118,0.3117,0.3115,0.3115,0.3115,0.3113,0.3111,0.3111,0.3104,0.3104,0,0,0.3132,0.3134,0.3129,0.3128,0.313,0.3127,0.3127,0.3118,0.3118,0.3115,0.3115,0.3113,0.3111,0.3111,0.3104,0.3104,0,0,0,0.3134,0.3135,0.3132,0.3129,0.3127,0.3127,0.3126,0.3118,0.3117,0.3114,0.3113,0.3111,0.3111,0.3104,0.3104,0.3107,0,0,0,0.3134,0.3136,0.3132,0.3134,0.3127,0.3123,0.3127,0.3118,0.3117,0.3113,0.3111,0.3111,0.3104,0.3104,0.3107,0.3108,0,0,0,0.3136,0.3136,0.3135,0.3134,0.313,0.3123,0.3121,0.3117,0.3116,0.3111,0.3111,0.3104,0.3104,0.3107,0.3108,0.3107,0,0,0,0.3139,0.3138,0.3135,0.3134,0.313,0.3125,0.3121,0.3117,0.3113,0.3111,0.3104,0.3104,0.3107,0.3108,0.3107,0.3107,0.3107,0,0,0.3139,0.3138,0.3137,0.3134,0.313,0.3126,0.3122,0.3116,0.3113,0.3107,0.3107,0.3107,0.3108,0.3107,0.3107,0.3107,0,0,0,0.3138,0.3137,0.3135,0.3132,0.3128,0.3124,0.3118,0.3116,0.3111,0.3111,0.3107,0.3107,0.3106,0.3106,0.3106,0.3105,0.3104,0.3104,0.3104,0.3142,0.3138,0.3136,0.3131,0.3128,0.3122,0.3119,0.3115,0.3112,0.3111,0.3109,0.3109,0.3109,0.3109,0.3108,0.3109,0.3109,0.3109,0.3109,0.3142,0.314,0.3136,0.3133,0.3128,0.3125,0.3118,0.3116,0.3112,0.3111,0.311,0.3108,0.311,0.3108,0.3109,0.3109,0.3109,0.3109,0.3109,0.3145,0.3143,0.314,0.3135,0.3131,0.3126,0.3122,0.3118,0.3114,0.3113,0.3111,0.3111,0.311,0.3112,0.3112,0.3112,0.3112,0.3112,0.3112,0.3148,0.3145,0.3142,0.3137,0.3135,0.313,0.3124,0.3121,0.3116,0.3113,0.3113,0.311,0.3111,0.3111,0.3112,0.3112,0.3112,0.3112,0.3112,0.3149,0.3148,0.3144,0.3142,0.3135,0.3131,0.3126,0.312,0.3116,0.3114,0.3111,0.3112,0.3111,0.3111,0.3111,0.3112,0.3112,0.3112,0.3112,0.3151,0.315,0.3145,0.314,0.3136,0.3131,0.3125,0.312,0.3114,0.3111,0.311,0.311,0.311,0.3108,0.3108,0.3108,0.3109,0.3109,0.3109,0.3151,0.315,0.3146,0.3141,0.3135,0.313,0.3125,0.3119,0.3112,0.3109,0.3109,0.3109,0.3109,0.3109,0.3106,0.3106,0.3106,0,0]}]]